When you browse on this site, cookies collect data to enhance your experience and personalize the content and advertising you see.
Visit our Privacy Policy to learn more. By continuing to use the site, you agree to this use of cookies and data.
  • In Romania
  • List of Countries
  • For 7 days
  • Water Temperature
  • Weather Map
  • Weather Widgets
  • user-avatar
    Login

    Hourly Weather Sedan

    Today, 22 August, Thursday

    Time Temperature Precipitation Wind Pressure Humidity
    00:00 +13°C° 0 mm 1 mps 745 mmHg 80%
    01:00 +13°C° 0 mm 1 mps 745 mmHg 80%
    02:00 +13°C° 0 mm 1 mps 744 mmHg 81%
    03:00 +12°C° 0 mm 1 mps 744 mmHg 82%
    04:00 +13°C° 0 mm 1 mps 744 mmHg 81%
    05:00 +14°C° 0 mm 1 mps 745 mmHg 80%
    06:00 +14°C° 0 mm 1 mps 745 mmHg 79%
    07:00 +18°C° 0 mm 1 mps 745 mmHg 71%
    08:00 +20°C° 0 mm 1 mps 745 mmHg 63%
    09:00 +22°C° 0 mm 1 mps 745 mmHg 55%
    10:00 +23°C° 0 mm 1 mps 745 mmHg 52%
    11:00 +24°C° 0 mm 1 mps 745 mmHg 48%
    12:00 +26°C° 0 mm 1 mps 745 mmHg 45%
    13:00 +26°C° 0 mm 1 mps 745 mmHg 45%
    14:00 +26°C° 0 mm 1 mps 745 mmHg 45%
    15:00 +26°C° 0 mm 1 mps 745 mmHg 45%
    16:00 +24°C° 0 mm 1 mps 744 mmHg 52%
    17:00 +23°C° 0 mm 1 mps 744 mmHg 60%
    18:00 +21°C° 0 mm 1 mps 744 mmHg 68%
    19:00 +19°C° 0 mm 2 mps 744 mmHg 70%
    20:00 +17°C° 0 mm 2 mps 745 mmHg 72%
    21:00 +16°C° 0 mm 2 mps 745 mmHg 75%
    22:00 +15°C° 0 mm 2 mps 745 mmHg 75%
    23:00 +15°C° 0 mm 2 mps 745 mmHg 75%

    Tomorrow, 23 August, Friday

    Time Temperature Precipitation Wind Pressure Humidity
    00:00 +14°C° 0 mm 2 mps 745 mmHg 76%
    01:00 +14°C° 0 mm 2 mps 744 mmHg 77%
    02:00 +14°C° 0 mm 1 mps 744 mmHg 78%
    03:00 +13°C° 0 mm 1 mps 744 mmHg 79%
    04:00 +14°C° 0 mm 1 mps 744 mmHg 78%
    05:00 +14°C° 0 mm 1 mps 744 mmHg 78%
    06:00 +15°C° 0 mm 1 mps 744 mmHg 77%
    07:00 +17°C° 0 mm 2 mps 744 mmHg 70%
    08:00 +20°C° 0 mm 2 mps 745 mmHg 62%
    09:00 +23°C° 0 mm 2 mps 745 mmHg 55%
    10:00 +25°C° 0 mm 2 mps 744 mmHg 51%
    11:00 +26°C° 0 mm 2 mps 744 mmHg 48%
    12:00 +27°C° 0 mm 2 mps 744 mmHg 44%
    13:00 +27°C° 0 mm 2 mps 743 mmHg 44%
    14:00 +27°C° 0 mm 2 mps 743 mmHg 44%
    15:00 +27°C° 0 mm 2 mps 743 mmHg 44%
    16:00 +26°C° 0 mm 2 mps 743 mmHg 51%
    17:00 +24°C° 0 mm 2 mps 742 mmHg 59%
    18:00 +21°C° 0 mm 2 mps 742 mmHg 67%
    19:00 +20°C° 0 mm 2 mps 742 mmHg 68%
    20:00 +19°C° 0 mm 2 mps 742 mmHg 69%
    21:00 +17°C° 0 mm 2 mps 742 mmHg 70%
    22:00 +17°C° 0 mm 2 mps 742 mmHg 70%
    23:00 +16°C° 0 mm 2 mps 742 mmHg 70%

    Day after tomorrow, 24 August, Saturday

    Time Temperature Precipitation Wind Pressure Humidity
    00:00 +16°C° 0 mm 2 mps 741 mmHg 70%
    01:00 +15°C° 0 mm 2 mps 741 mmHg 72%
    02:00 +15°C° 0 mm 2 mps 741 mmHg 74%
    03:00 +15°C° 0 mm 2 mps 741 mmHg 75%
    04:00 +15°C° 0 mm 2 mps 741 mmHg 76%
    05:00 +15°C° 0 mm 2 mps 741 mmHg 76%
    06:00 +16°C° 0 mm 2 mps 741 mmHg 77%
    07:00 +18°C° 0 mm 2 mps 741 mmHg 71%
    08:00 +21°C° 0 mm 2 mps 741 mmHg 65%
    09:00 +24°C° 0 mm 3 mps 741 mmHg 59%
    10:00 +26°C° 0 mm 2 mps 741 mmHg 55%
    11:00 +27°C° 0 mm 2 mps 741 mmHg 51%
    12:00 +28°C° 0 mm 2 mps 740 mmHg 47%
    13:00 +28°C° 0 mm 2 mps 740 mmHg 46%
    14:00 +29°C° 0 mm 2 mps 740 mmHg 45%
    15:00 +29°C° 0 mm 1 mps 739 mmHg 43%
    16:00 +27°C° 0 mm 1 mps 739 mmHg 50%
    17:00 +26°C° 0 mm 1 mps 739 mmHg 57%
    18:00 +22°C° 0 mm 0 mps 738 mmHg 64%
    19:00 +23°C° 0 mm 1 mps 739 mmHg 67%
    20:00 +22°C° 0 mm 1 mps 739 mmHg 70%
    21:00 +20°C° 0 mm 1 mps 739 mmHg 72%
    22:00 +20°C° 0 mm 1 mps 739 mmHg 76%
    23:00 +20°C° 0 mm 1 mps 739 mmHg 79%

    25 August, Sunday

    Time Temperature Precipitation Wind Pressure Humidity
    00:00 +19°C° 0 mm 1 mps 738 mmHg 83%
    01:00 +19°C° 0 mm 1 mps 738 mmHg 85%
    02:00 +19°C° 0 mm 1 mps 738 mmHg 88%
    03:00 +19°C° 0 mm 1 mps 738 mmHg 91%
    04:00 +19°C° 0 mm 1 mps 738 mmHg 90%
    05:00 +19°C° 0 mm 1 mps 738 mmHg 90%
    06:00 +20°C° 0 mm 1 mps 738 mmHg 89%
    07:00 +21°C° 0 mm 2 mps 739 mmHg 81%
    08:00 +24°C° 0 mm 2 mps 739 mmHg 72%
    09:00 +27°C° 0 mm 2 mps 739 mmHg 63%
    10:00 +28°C° 0 mm 2 mps 739 mmHg 57%
    11:00 +29°C° 0 mm 2 mps 739 mmHg 51%
    12:00 +30°C° 0 mm 1 mps 739 mmHg 45%
    13:00 +31°C° 0 mm 1 mps 739 mmHg 42%
    14:00 +31°C° 0 mm 1 mps 739 mmHg 40%
    15:00 +31°C° 0 mm 1 mps 739 mmHg 37%
    16:00 +29°C° 0 mm 1 mps 739 mmHg 45%
    17:00 +27°C° 0 mm 1 mps 739 mmHg 52%
    18:00 +25°C° 0 mm 1 mps 739 mmHg 59%
    19:00 +24°C° 0 mm 1 mps 739 mmHg 61%
    20:00 +23°C° 0 mm 1 mps 739 mmHg 63%
    21:00 +22°C° 0 mm 1 mps 740 mmHg 64%
    22:00 +21°C° 0 mm 1 mps 740 mmHg 67%
    23:00 +21°C° 0 mm 1 mps 740 mmHg 69%

    26 August, Monday

    Time Temperature Precipitation Wind Pressure Humidity
    00:00 +20°C° 0 mm 1 mps 740 mmHg 72%
    01:00 +20°C° 0 mm 1 mps 740 mmHg 73%
    02:00 +20°C° 0 mm 1 mps 740 mmHg 74%
    03:00 +19°C° 0 mm 1 mps 740 mmHg 75%
    04:00 +20°C° 0 mm 1 mps 740 mmHg 75%
    05:00 +20°C° 0 mm 1 mps 740 mmHg 76%
    06:00 +20°C° 0 mm 1 mps 740 mmHg 76%
    07:00 +23°C° 0 mm 1 mps 741 mmHg 68%
    08:00 +25°C° 0 mm 1 mps 741 mmHg 61%
    09:00 +28°C° 0 mm 1 mps 741 mmHg 54%
    10:00 +29°C° 0 mm 1 mps 741 mmHg 49%
    11:00 +30°C° 0 mm 2 mps 741 mmHg 44%
    12:00 +31°C° 0 mm 2 mps 741 mmHg 40%
    13:00 +31°C° 0 mm 2 mps 741 mmHg 40%
    14:00 +31°C° 0 mm 2 mps 740 mmHg 40%
    15:00 +31°C° 0 mm 2 mps 740 mmHg 40%
    16:00 +30°C° 0 mm 2 mps 740 mmHg 47%
    17:00 +28°C° 0 mm 2 mps 740 mmHg 55%
    18:00 +26°C° 0 mm 1 mps 739 mmHg 62%
    19:00 +25°C° 0 mm 2 mps 740 mmHg 64%
    20:00 +24°C° 0 mm 2 mps 740 mmHg 66%
    21:00 +21°C° 0 mm 2 mps 740 mmHg 68%
    22:00 +21°C° 0 mm 2 mps 740 mmHg 68%
    23:00 +21°C° 0 mm 1 mps 740 mmHg 69%

    27 August, Tuesday

    Time Temperature Precipitation Wind Pressure Humidity
    00:00 +21°C° 0 mm 1 mps 740 mmHg 69%
    01:00 +21°C° 0 mm 1 mps 739 mmHg 70%
    02:00 +20°C° 0 mm 1 mps 739 mmHg 70%
    03:00 +20°C° 0 mm 1 mps 739 mmHg 70%
    04:00 +20°C° 0 mm 1 mps 739 mmHg 70%
    05:00 +21°C° 0 mm 1 mps 739 mmHg 71%
    06:00 +21°C° 0 mm 1 mps 739 mmHg 71%
    07:00 +24°C° 0 mm 1 mps 739 mmHg 64%
    08:00 +26°C° 0 mm 1 mps 739 mmHg 58%
    09:00 +28°C° 0 mm 1 mps 739 mmHg 51%
    10:00 +29°C° 0 mm 1 mps 739 mmHg 47%
    11:00 +30°C° 0 mm 2 mps 739 mmHg 44%
    12:00 +31°C° 0 mm 2 mps 738 mmHg 40%
    13:00 +31°C° 0 mm 2 mps 738 mmHg 40%
    14:00 +31°C° 0 mm 2 mps 737 mmHg 40%
    15:00 +31°C° 0 mm 2 mps 737 mmHg 41%
    16:00 +29°C° 0 mm 2 mps 736 mmHg 47%
    17:00 +28°C° 0 mm 2 mps 736 mmHg 54%
    18:00 +26°C° 0 mm 2 mps 736 mmHg 60%
    19:00 +25°C° 0 mm 2 mps 736 mmHg 61%
    20:00 +23°C° 0 mm 2 mps 736 mmHg 62%
    21:00 +22°C° 0 mm 1 mps 736 mmHg 62%
    22:00 +22°C° 0 mm 1 mps 736 mmHg 64%
    23:00 +21°C° 0 mm 1 mps 736 mmHg 66%
    Show more